Torna al catalogo

STARLINK-5640

AttivoComunicazioniVLEO
NORAD 55436·PAYLOAD·🇺🇸 United States

Lanciato Jan 31, 2023 da Vandenberg Space Force Base

Loading…

Prossimi Passaggi (prossime 24 ore)

TLE

AggiornatoSource: CelesTrak SupGP

Epoca: Sep 14, 2026, 21:27 UTC

1 55436C 23014AX  26257.89423611 -.00048739  00000+0 -40848-2 0  2574
2 55436  70.0015 347.4520 0003307 270.3505 266.0835 14.98352743    15

Traccia STARLINK-5640 in tempo reale con AllMySat

Download on the App Store